Regional Weather Roundup
Issued by NWS Little Rock, AR

Home | Current Version | Previous Version | Text Only | Print | Product List | Glossary On
Versions: 1 2 3 4 5 6 7 8 9 10 11 12 13 14 15 16 17 18 19 20 21 22 23 24 25 26 27 28 29 30 31 32 33 34 35 36 37 38 39 40 41 42 43 44 45 46 47 48 49 50
000
ASUS44 KLZK 172005
RWRLZK

WEATHER ROUNDUP FOR ARKANSAS
NATIONAL WEATHER SERVICE LITTLE ROCK AR
200 PM CST WED DEC 17 2014

NOTE: "FAIR" INDICATES FEW OR NO CLOUDS BELOW 12,000 FEET WITH NO
SIGNIFICANT WEATHER AND/OR OBSTRUCTIONS TO VISIBILITY.

ARZ001-003-010-029-172100-
NORTHWEST ARKANSAS

CITY           SKY/WX    TMP DP  RH WIND       PRES   REMARKS
FAYETTEVILLE   LGT RAIN  35  33  92 CALM      30.22F
FORT SMITH     LGT RAIN  37  33  85 NE3       30.27S
HARRISON       LGT RAIN  35  28  75 E3        30.22F
BENTONVILLE    CLOUDY    36  28  75 NE3       30.23S
ROGERS         LGT RAIN  34  29  82 CALM      30.23F
SILOAM SPGS    CLOUDY    36  27  69 CALM      30.26R
HIGHFILL       CLOUDY    35  30  82 CALM      30.23S HAZE
SPRINGDALE     LGT RAIN  34  30  86 E8        30.23F WCI  27
$$

ARZ004-005-016-172100-
NORTH CENTRAL ARKANSAS

CITY           SKY/WX    TMP DP  RH WIND       PRES   REMARKS
BATESVILLE     CLOUDY    39  27  60 CALM      30.28F
FLIPPIN        CLOUDY    37  25  60 CALM      30.25F
MTN HOME       CLOUDY    36  25  64 CALM      30.24F
$$

ARZ040-041-172100-
WEST CENTRAL ARKANSAS

CITY           SKY/WX    TMP DP  RH WIND       PRES   REMARKS
MENA           CLOUDY    37  36  93 NE5       30.21F
MOUNT IDA      LGT RAIN  39  29  67 NE3       30.22F
$$

ARZ009-017-025-026-028-172100-
NORTHEAST ARKANSAS

CITY           SKY/WX    TMP DP  RH WIND       PRES   REMARKS
CORNING          N/A     37  28  70 CALM      30.29F
JONESBORO      CLOUDY    38  30  73 SE3       30.29F
NEWPORT        CLOUDY    38  29  70 NW6       30.32S
WALNUT RIDGE   CLOUDY    37  27  65 CALM      30.29F
BLYTHEVILLE    CLOUDY    39  30  70 VRB3      30.27F
$$

ARZ022-023-033-042-044-172100-
CENTRAL ARKANSAS

CITY           SKY/WX    TMP DP  RH WIND       PRES   REMARKS
LITTLE ROCK    CLOUDY    41  27  57 NE6       30.29F
N LITTLE ROCK  CLOUDY    39  30  71 N6        30.29F
JACKSONVILLE   CLOUDY    40  28  61 N3        30.27F
SEARCY         CLOUDY    39  28  64 CALM      30.31F
HOT SPRINGS    CLOUDY    39  27  62 E3        30.27F
RUSSELLVILLE   CLOUDY    39  28  64 CALM      30.27F
CLINTON        PTSUNNY   41  28  60 E3        30.27F
$$

ARZ036-172100-
EAST ARKANSAS

CITY           SKY/WX    TMP DP  RH WIND       PRES   REMARKS
WEST MEMPHIS   CLOUDY    41  34  76 N3        30.27F
$$

ARZ050-053-066-070-073-172100-
SOUTHWEST ARKANSAS

CITY           SKY/WX    TMP DP  RH WIND       PRES   REMARKS
ARKADELPHIA    MOCLDY    40  33  76 NE7       30.28F
CAMDEN         CLOUDY    46  32  57 MISG      30.27F
TEXARKANA      CLOUDY    40  33  76 NE5       30.25F
EL DORADO      CLOUDY    47  33  58 N3        30.25F
DE QUEEN       CLOUDY    39  32  76 SE6       30.25F
$$

ARZ056-057-069-172100-
SOUTHEAST ARKANSAS

CITY           SKY/WX    TMP DP  RH WIND       PRES   REMARKS
PINE BLUFF     CLOUDY    41  31  67 N7        30.28S
STUTTGART      CLOUDY    39  30  70 N6        30.29S
MONTICELLO     PTSUNNY   48  33  56 VRB7      30.25F

$$




USA.gov is the U.S. government's official web portal to all federal, state and local government web resources and services.